Retour au catalogue

GEESAT 6-03

ActifCommunicationsLEO
NORAD 65715·PAYLOAD·🇨🇳 China

Lancé Sep 24, 2025 depuis Yellow Sea Launch Area

Loading…

Prochains Passages (prochaines 24 heures)

TLE

FraisSource: Space-Track

Époque: Sep 14, 2026, 11:18 UTC

1 65715U 25214D   26257.47149936  .00001172  00000-0  16802-3 0  9994
2 65715  49.9815 254.2558 0012739 208.7074 151.3164 14.83554230 52769

Suivez GEESAT 6-03 en temps réel avec AllMySat

Download on the App Store